(67581) = 2000 SB119 = 2002 CS171

Discovered at Socorro on 2000-09-24 by LINEAR.

Orbit

Orbit type: Main Belt

Note: WebGL enabled browser required.

epoch2023-09-13.0
epoch JD2460200.5
perihelion date2020-05-18.97449
perihelion JD2458988.47449
argument of perihelion (°)271.72109
ascending node (°)40.09841
inclination (°)4.19823
eccentricity0.1768208
perihelion distance (AU)1.8431054
Tisserand w.r.t. Jupiter3.6
ΔV w.r.t. Earth (km/sec)8.5
semimajor axis (AU)2.2390086
mean anomaly (°)356.55945
mean daily motion (°/day)0.29418480
aphelion distance (AU)2.635
period (years)3.35
P-vector [x]0.66505866
P-vector [y]-0.65276330
P-vector [z]-0.36276308
Q-vector [x]0.74530099
Q-vector [y]0.61083320
Q-vector [z]0.26722507
absolute magnitude16.4
phase slope0.15
uncertainty0
referenceMPO 776950
observations used1004
oppositions18
arc length (days)12059
first opposition used1990
last opposition used2023
residual rms (arc-secs)0.70
perturbers coarse indicatorM-v
perturbers precise indicator003Ek
first observation date used1990-10-25.0
last observation date used2023-10-31.0
computer nameMPCLINUX
JD of orbit computation2456494.360654
perihelion JD uncertainty (days)4.6580E-05
argument of perihelion uncertainty (°)4.4799E-05
ascending node uncertainty (°)4.2398E-05
inclination uncertainty (°)4.8154E-06
eccentricity uncertainty 2.8507E-08
perihelion distance uncertainty (AU)6.4740E-08
Minimum Orbit Intersection Distances (in AU)
for orbit epoch: 2460200.5, reference: E2023-V03
Mercury1.40853
Venus1.11525
Earth0.8343
Mars0.44828
Jupiter2.62376
Saturn6.49265
Uranus15.8659
Neptune27.5453

Observations

1022 total observations over interval: 1990 10 25.21478 – 2023 10 31.222845
These data are available for download (format description).

Date (UT) J2000 RA J2000 Dec Magn Location Ref
1990 10 25.21478 02 25 30.41 +13 40 37.1 19.8 V 691 – Steward Observatory, Kitt Peak-Spacewatch MPS 77994
1990 10 25.23157 02 25 29.25 +13 40 34.5 19.7 V 691 – Steward Observatory, Kitt Peak-Spacewatch MPS 77994
1990 10 25.25025 02 25 27.92 +13 40 31.3 19.7 V 691 – Steward Observatory, Kitt Peak-Spacewatch MPS 77994
2000 09 22.33046 02 11 22.98 +10 07 29.6 18.1 R 699 – Lowell Observatory-LONEOS MPS 30142
2000 09 22.35061 02 11 22.16 +10 07 28.0   699 – Lowell Observatory-LONEOS MPS 30142
2000 09 22.37076 02 11 21.39 +10 07 26.8   699 – Lowell Observatory-LONEOS MPS 30142
2000 09 22.39089 02 11 20.62 +10 07 25.3   699 – Lowell Observatory-LONEOS MPS 30142
2000 09 24.40844 02 10 03.87 +10 04 38.9 19.0   704 – Lincoln Laboratory ETS, New Mexico MPS 19981
2000 09 24.42291 02 10 03.21 +10 04 37.4 19.5   704 – Lincoln Laboratory ETS, New Mexico MPS 19981
2000 09 24.43733 02 10 02.49 +10 04 35.8 19.1   704 – Lincoln Laboratory ETS, New Mexico MPS 19981
2000 09 24.45176 02 10 01.94 +10 04 36.4 19.0   704 – Lincoln Laboratory ETS, New Mexico MPS 19981
2000 09 27.26315 02 08 01.93 +09 59 49.1 18.5   704 – Lincoln Laboratory ETS, New Mexico MPS 19981
2000 09 27.27823 02 08 01.24 +09 59 47.2 18.6   704 – Lincoln Laboratory ETS, New Mexico MPS 19981
2000 09 27.29330 02 08 00.57 +09 59 46.5 19.3   704 – Lincoln Laboratory ETS, New Mexico MPS 19981
2000 09 27.30839 02 07 59.82 +09 59 44.3 18.8   704 – Lincoln Laboratory ETS, New Mexico MPS 19981
2000 09 27.32348 02 07 59.06 +09 59 42.3 18.5   704 – Lincoln Laboratory ETS, New Mexico MPS 19981
2000 09 30.36929 02 05 32.06 +09 53 30.4 18.1 R 699 – Lowell Observatory-LONEOS MPS 25176
2000 09 30.38641 02 05 31.07 +09 53 27.5   699 – Lowell Observatory-LONEOS MPS 25176
2000 09 30.40339 02 05 30.24 +09 53 25.3   699 – Lowell Observatory-LONEOS MPS 25176
2000 09 30.42048 02 05 29.31 +09 53 22.0   699 – Lowell Observatory-LONEOS MPS 25176
2000 10 01.33920 02 04 42.02 +09 51 17.6 18.6   704 – Lincoln Laboratory ETS, New Mexico MPS 19981
2000 10 01.35428 02 04 41.20 +09 51 15.9 18.7   704 – Lincoln Laboratory ETS, New Mexico MPS 19981
2000 10 01.36936 02 04 40.38 +09 51 13.9 19.1   704 – Lincoln Laboratory ETS, New Mexico MPS 19981
2000 10 01.38444 02 04 39.53 +09 51 11.7 18.9   704 – Lincoln Laboratory ETS, New Mexico MPS 19981
2000 10 01.39953 02 04 38.71 +09 51 09.5 18.6   704 – Lincoln Laboratory ETS, New Mexico MPS 19981
2000 10 06.31359 02 00 04.49 +09 38 42.4 18.6 R 699 – Lowell Observatory-LONEOS MPS 19981
2000 10 06.35550 02 00 01.96 +09 38 33.6   699 – Lowell Observatory-LONEOS MPS 19981
2000 10 06.39744 01 59 59.29 +09 38 27.3   699 – Lowell Observatory-LONEOS MPS 19981
2000 10 06.43937 01 59 56.71 +09 38 19.9   699 – Lowell Observatory-LONEOS MPS 19981
2000 10 07.30417 01 59 05.50 +09 35 56.1 17.8 R 699 – Lowell Observatory-LONEOS MPS 21238
2000 10 07.34608 01 59 02.89 +09 35 49.6   699 – Lowell Observatory-LONEOS MPS 21238
2000 10 07.38803 01 59 00.23 +09 35 43.1   699 – Lowell Observatory-LONEOS MPS 21238
2000 10 07.43005 01 58 57.59 +09 35 35.9   699 – Lowell Observatory-LONEOS MPS 21238
2000 10 24.34182 01 40 47.75 +08 43 51.6 18.4   704 – Lincoln Laboratory ETS, New Mexico MPS 21238
2000 10 24.35526 01 40 46.90 +08 43 50.3 18.7   704 – Lincoln Laboratory ETS, New Mexico MPS 21238
2000 10 24.38215 01 40 45.02 +08 43 45.6 19.1   704 – Lincoln Laboratory ETS, New Mexico MPS 21238
2000 10 31.21729 01 33 47.04 +08 25 04.0 18.5   704 – Lincoln Laboratory ETS, New Mexico MPS 21238
2000 10 31.23177 01 33 46.11 +08 25 01.8 18.6   704 – Lincoln Laboratory ETS, New Mexico MPS 21238
2000 10 31.24576 01 33 45.22 +08 25 00.0 18.7   704 – Lincoln Laboratory ETS, New Mexico MPS 21238
2000 10 31.25972 01 33 44.41 +08 24 56.9 18.6   704 – Lincoln Laboratory ETS, New Mexico MPS 21238
2000 10 31.27396 01 33 43.55 +08 24 55.3 18.3   704 – Lincoln Laboratory ETS, New Mexico MPS 21238
2000 11 02.21436 01 31 54.25 +08 20 22.9 18.4   704 – Lincoln Laboratory ETS, New Mexico MPS 21238
2000 11 02.21783 01 31 54.10 +08 20 22.5 18.7   704 – Lincoln Laboratory ETS, New Mexico MPS 21238
2000 11 02.22836 01 31 53.46 +08 20 21.3 18.5   704 – Lincoln Laboratory ETS, New Mexico MPS 21238
2000 11 02.23399 01 31 53.13 +08 20 20.5 19.0   704 – Lincoln Laboratory ETS, New Mexico MPS 21238
2000 11 02.24192 01 31 52.67 +08 20 19.9 19.1   704 – Lincoln Laboratory ETS, New Mexico MPS 21238
2000 11 02.24797 01 31 52.32 +08 20 18.3 19.0   704 – Lincoln Laboratory ETS, New Mexico MPS 21238
2000 11 02.25545 01 31 51.88 +08 20 18.4 18.8   704 – Lincoln Laboratory ETS, New Mexico MPS 21238
2000 11 02.26191 01 31 51.55 +08 20 16.0 19.0   704 – Lincoln Laboratory ETS, New Mexico MPS 21238
2000 11 02.26955 01 31 51.08 +08 20 16.1 18.8   704 – Lincoln Laboratory ETS, New Mexico MPS 21238
2000 11 02.27783 01 31 50.59 +08 20 13.9 19.1   704 – Lincoln Laboratory ETS, New Mexico MPS 21238
2000 11 03.20647 01 31 00.25 +08 18 13.9 18.7   704 – Lincoln Laboratory ETS, New Mexico MPS 21238
2000 11 03.21988 01 30 59.50 +08 18 10.8 18.1   704 – Lincoln Laboratory ETS, New Mexico MPS 21238
2000 11 03.21996 01 30 59.60 +08 18 11.2 19.1   704 – Lincoln Laboratory ETS, New Mexico MPS 21238
2000 11 03.23343 01 30 58.76 +08 18 10.8 19.0   704 – Lincoln Laboratory ETS, New Mexico MPS 21238
2000 11 03.23412 01 30 58.74 +08 18 09.4 18.4   704 – Lincoln Laboratory ETS, New Mexico MPS 21238
2000 11 03.24692 01 30 58.04 +08 18 07.8 19.4   704 – Lincoln Laboratory ETS, New Mexico MPS 21238
2000 11 03.24871 01 30 57.90 +08 18 07.9 18.4   704 – Lincoln Laboratory ETS, New Mexico MPS 21238
2000 11 03.26041 01 30 57.22 +08 18 06.4 18.9   704 – Lincoln Laboratory ETS, New Mexico MPS 21238
2000 11 03.26347 01 30 57.03 +08 18 06.1 18.5   704 – Lincoln Laboratory ETS, New Mexico MPS 21238
2000 11 03.27811 01 30 56.22 +08 18 04.3 18.3   704 – Lincoln Laboratory ETS, New Mexico MPS 21238
2000 11 18.16917 01 20 43.55 +08 01 43.4 19.3 V 691 – Steward Observatory, Kitt Peak-Spacewatch MPS 22491
2000 11 18.19930 01 20 42.65 +08 01 43.6 19.4 V 691 – Steward Observatory, Kitt Peak-Spacewatch MPS 22491
2000 11 18.22877 01 20 41.76 +08 01 43.6 19.4 V 691 – Steward Observatory, Kitt Peak-Spacewatch MPS 22491
2002 02 07.26847 10 04 00.27 +18 49 33.4 19.9   644 – Palomar Mountain/NEAT MPS 51992
2002 02 07.34317 10 03 55.47 +18 49 59.6 20.3   644 – Palomar Mountain/NEAT MPS 51992
2002 02 07.40918 10 03 51.25 +18 50 22.3 20.8   644 – Palomar Mountain/NEAT MPS 51992
2002 02 08.38964 10 02 49.63 +18 55 58.0 20.3   704 – Lincoln Laboratory ETS, New Mexico MPS 50353
2002 02 08.40397 10 02 48.80 +18 56 02.3 19.9   704 – Lincoln Laboratory ETS, New Mexico MPS 50353
2002 02 08.41830 10 02 47.82 +18 56 08.3 19.7   704 – Lincoln Laboratory ETS, New Mexico MPS 50354
2002 02 08.43261 10 02 46.89 +18 56 12.5 19.5   704 – Lincoln Laboratory ETS, New Mexico MPS 50354
2002 02 12.33524 09 58 36.99 +19 17 58.2 19.8   704 – Lincoln Laboratory ETS, New Mexico MPS 50354
2002 02 12.35026 09 58 35.86 +19 18 02.7 19.8   704 – Lincoln Laboratory ETS, New Mexico MPS 50354
2002 02 12.36467 09 58 34.98 +19 18 07.4 20.1   704 – Lincoln Laboratory ETS, New Mexico MPS 50354
2002 02 12.37944 09 58 34.03 +19 18 12.1 20.0   704 – Lincoln Laboratory ETS, New Mexico MPS 50354
2002 02 23.27289 09 46 44.84 +20 11 34.6 20.1   644 – Palomar Mountain/NEAT MPS 51992
2002 02 23.29405 09 46 43.46 +20 11 39.8 19.9   644 – Palomar Mountain/NEAT MPS 51992
2002 02 23.31501 09 46 42.09 +20 11 45.0 19.8   644 – Palomar Mountain/NEAT MPS 51992
2002 04 02.13566 09 21 12.07 +20 57 34.7 20.2   644 – Palomar Mountain/NEAT MPS 54695
2002 04 02.15660 09 21 11.83 +20 57 32.7 20.1   644 – Palomar Mountain/NEAT MPS 54695
2002 04 02.17757 09 21 11.60 +20 57 30.5 20.2   644 – Palomar Mountain/NEAT MPS 54695
2003 07 30.54042 20 19 30.94 -29 03 41.8 18.2 V 428 – Reedy Creek MPS 82386
2003 07 30.56598 20 19 29.35 -29 03 46.0 17.7 V 428 – Reedy Creek MPS 82386
2003 08 04.52225 20 14 52.37 -29 14 39.0 18.4 V 428 – Reedy Creek MPS 82877
2003 08 04.56927 20 14 49.65 -29 14 44.0 18.3 V 428 – Reedy Creek MPS 82877
2003 08 23.22159 20 02 41.50 -29 06 48.7 19.1   704 – Lincoln Laboratory ETS, New Mexico MPS 83262
